Home   Weather   Warminster Township   Past weeks

Flag for USA Past Weather in Warminster Township, Pennsylvania, USA — Yesterday and Last 2 Weeks

Now
72 °F

Sunny.


Feels Like: 72 °F
Forecast: 65 / 83 °F
Wind: 8 mph from Southwest

Location: Doylestown Airport

Current Time: Apr 29, 2017 at 11:33:19 am

Latest Report: Apr 29, 2017 at 10:54 am


Visibility: 10 mi

Pressure: 30.01 "Hg

Humidity: 81%

Dew Point: 66 °F

Location of Warminster TownshipLocation

Past Weather in Warminster Township — Graph

°F

Warminster Township Temperature Yesterday

Maximum temperature yesterday: 82 °F (at 2:54 pm)
Minimum temperature yesterday: 56 °F (at 6:38 am)
Average temperature yesterday: 69 °F

High & Low Weather Summary for the Past Weeks

 TemperatureHumidityPressure
High84 °F (Apr 16, 1:54 pm)100% (Apr 16, 2:54 am)30.50 "Hg (Apr 16, 2:54 am)
Low41 °F (Apr 15, 4:54 am)22% (Apr 17, 5:54 pm)29.71 "Hg (Apr 26, 6:54 am)
Average58 °F75%30.05 "Hg
* Reported Apr 14 9:54 am — Apr 29 9:54 am, Warminster Township, Weather by CustomWeather, © 2017

Note: Actual official high and low records may vary slightly from our data, if they occured in-between our weather recording intervals... More about our weather records

Advertising

Warminster Township Weather History for the Previous 24 Hours

Scroll right to see more
 ConditionsComfort  
Time TempWeatherWind HumidityBarometerVisibility
9:54 am
Sat, Apr 29
71 °FPassing clouds.5 mph84%30.03 "Hg10 mi
8:54 am68 °FScattered clouds.5 mph96%30.03 "Hg10 mi
8:02 am66 °FPassing clouds.5 mph100%30.02 "Hg10 mi
6:54 am63 °FFog.No wind100%29.94 "Hg4 mi
6:06 am63 °FFog.No wind100%29.98 "Hg3 mi
5:54 am62 °FFog.No wind100%29.97 "Hg2 mi
5:20 am63 °FPartly cloudy.No wind100%29.99 "Hg10 mi
5:01 am64 °FThunderstorms. Partly cloudy.3 mph100%29.99 "Hg10 mi
4:40 am63 °FThunderstorms. Fog.5 mph100%29.97 "Hg2 mi
4:08 am64 °FThunderstorms. Mostly cloudy.6 mph94%29.98 "Hg10 mi
3:35 am65 °FThundershowers. Mostly cloudy.6 mph85%30.00 "Hg10 mi
2:54 am64 °FPassing clouds.No wind84%30.01 "Hg10 mi
1:54 am64 °FPassing clouds.No wind81%30.02 "Hg10 mi
12:54 am63 °FClear.No wind87%30.03 "Hg10 mi
11:54 pm
Fri, Apr 28
65 °FClear.No wind76%30.03 "Hg10 mi
10:54 pm68 °FClear.No wind59%30.04 "Hg10 mi
9:54 pm71 °FClear.5 mph53%30.03 "Hg10 mi
8:54 pm67 °FClear.No wind57%30.02 "Hg10 mi
7:54 pm74 °FClear.No wind38%30.01 "Hg10 mi
6:54 pm80 °FSunny.6 mph27%30.00 "Hg10 mi
5:54 pm80 °FSunny.8 mph25%29.98 "Hg10 mi
4:54 pm81 °FSunny.9 mph26%29.98 "Hg10 mi
2:54 pm82 °FSunny.10 mph26%30.00 "Hg10 mi
1:54 pm81 °FSunny.6 mph38%29.98 "Hg10 mi
12:54 pm78 °FSunny.9 mph37%30.00 "Hg10 mi
11:54 am78 °FSunny.9 mph37%30.01 "Hg10 mi
Weather by CustomWeather, © 2017

See weather overviewHow to use our weather pages